Weather History for K3A1 - May, 2013

Change the Weather History Date:

Wednesday, May 29, 2013

  Actual Average (KHSV) Record (KHSV)
Temperature  
Mean Temperature 76 °F 74 °F  
Max Temperature 85 °F 85 °F 99 °F (1914)
Min Temperature 67 °F 63 °F 46 °F (1984)
Degree Days  
Heating Degree Days 0 0  
Month to date heating degree days 25  
Since 1 July heating degree days 2999  
Cooling Degree Days 11 9  
Month to date cooling degree days 172  
Year to date cooling degree days 244  
Growing Degree Days 26 (Base 50)    
Moisture  
Dew Point 63 °F    
Average Humidity 65    
Maximum Humidity 96    
Minimum Humidity 48    
Precipitation  
Precipitation 0.01 in 0.15 in 3.62 in (1912)
Month to date precipitation 4.80  
Year to date precipitation 24.06  
Snow  
Snow 0.00 in - - ()
Month to date snowfall  
Since 1 July snowfall  
Snow Depth -    
Sea Level Pressure  
Sea Level Pressure 30.13 in    
Wind  
Wind Speed 5 mph (SE)    
Max Wind Speed 10 mph    
Max Gust Speed -    
Visibility 10 miles    
Events Rain    
T = Trace of Precipitation, MM = Missing Value Source: NWS Daily Summary

Daily Weather History Graph

Daily Weather History Graph

Search for Another Location

Airport or City:

Trip Planner

Search our weather history database for the weather conditions in past years. The results will help you decide how hot, cold, wet, or windy it might be!

Date:

Astronomy

May. 29, 2013 Rise Set
Actual Time 5:37 AM CDT 7:52 PM CDT
Civil Twilight 5:08 AM CDT 8:21 PM CDT
Nautical Twilight 4:33 AM CDT 8:56 PM CDT
Astronomical Twilight 3:55 AM CDT 9:34 PM CDT
Moon No Moon Rise 10:29 AM CDT (5/29)
Length of Visible Light 15h 12m
Length of Day
14h 15m
Waning Gibbous, 73% of the Moon is Illuminated
May 29
Waning Gibbous
May 31
Last Quarter
Jun 8
New
Jun 16
First Quarter
Jun 23
Full

Hourly Weather History & Observations

Time (CDT) Temp. Heat Index Dew Point Humidity Pressure Visibility Wind Dir Wind Speed Gust Speed Precip Events Conditions
12:15 AM 71.2 °F - 61.7 °F 72% 30.09 in 10.0 mi SE 6.9 mph - N/A   Clear
12:35 AM 71.1 °F - 61.2 °F 71% 30.09 in 10.0 mi SSE 5.8 mph - N/A   Clear
12:55 AM 70.7 °F - 60.8 °F 71% 30.09 in 10.0 mi SE 4.6 mph - N/A   Scattered Clouds
1:15 AM 70.9 °F - 60.3 °F 69% 30.10 in 10.0 mi SE 3.5 mph - N/A   Mostly Cloudy
1:35 AM 71.2 °F - 59.9 °F 67% 30.11 in 10.0 mi Calm Calm - N/A   Overcast
1:55 AM 71.2 °F - 59.5 °F 66% 30.11 in 10.0 mi SSE 4.6 mph - N/A   Overcast
2:15 AM 71.1 °F - 59.2 °F 66% 30.11 in 10.0 mi SE 4.6 mph - N/A   Overcast
2:35 AM 71.4 °F - 58.8 °F 64% 30.12 in 10.0 mi SSE 4.6 mph - N/A   Overcast
2:55 AM 71.2 °F - 58.5 °F 64% 30.12 in 10.0 mi ESE 4.6 mph - N/A   Mostly Cloudy
3:15 AM 70.2 °F - 58.3 °F 66% 30.13 in 10.0 mi SE 3.5 mph - N/A   Scattered Clouds
3:35 AM 69.6 °F - 58.3 °F 67% 30.13 in 10.0 mi SSE 3.5 mph - N/A   Scattered Clouds
3:55 AM 69.4 °F - 58.1 °F 67% 30.13 in 10.0 mi SSE 4.6 mph - N/A   Scattered Clouds
4:15 AM 70.0 °F - 57.7 °F 65% 30.13 in 10.0 mi SSE 6.9 mph - N/A   Mostly Cloudy
4:35 AM 69.8 °F - 57.6 °F 65% 30.13 in 10.0 mi SE 5.8 mph - N/A   Mostly Cloudy
4:55 AM 69.4 °F - 57.6 °F 66% 30.14 in 10.0 mi SE 6.9 mph - N/A   Mostly Cloudy
5:15 AM 69.4 °F - 57.6 °F 66% 30.14 in 10.0 mi SE 4.6 mph - N/A   Mostly Cloudy
5:35 AM 69.1 °F - 57.6 °F 67% 30.14 in 10.0 mi SE 3.5 mph - N/A   Mostly Cloudy
5:55 AM 68.4 °F - 57.6 °F 68% 30.14 in 10.0 mi Calm Calm - N/A   Scattered Clouds
6:15 AM 67.3 °F - 57.7 °F 71% 30.15 in 10.0 mi Calm Calm - N/A   Clear
6:35 AM 68.5 °F - 57.9 °F 69% 30.15 in 10.0 mi ESE 6.9 mph - N/A   Clear
6:55 AM 69.1 °F - 58.5 °F 69% 30.16 in 10.0 mi ESE 6.9 mph - N/A   Clear
7:15 AM 69.3 °F - 59.0 °F 70% 30.17 in 10.0 mi ESE 6.9 mph - N/A   Clear
7:35 AM 69.8 °F - 59.7 °F 70% 30.17 in 10.0 mi SE 8.1 mph - N/A   Clear
7:55 AM 71.1 °F - 60.1 °F 68% 30.18 in 10.0 mi ESE 8.1 mph - N/A   Clear
8:15 AM 72.0 °F - 60.6 °F 67% 30.19 in 10.0 mi SSE 5.8 mph - N/A   Clear
8:35 AM 73.0 °F - 61.5 °F 67% 30.19 in 10.0 mi SE 6.9 mph - N/A   Clear
8:55 AM 73.4 °F - 62.1 °F 68% 30.19 in 10.0 mi SSE 6.9 mph - N/A   Clear
9:15 AM 74.7 °F - 63.3 °F 68% 30.20 in 10.0 mi SSE 6.9 mph - N/A   Clear
9:35 AM 75.7 °F - 63.9 °F 66% 30.19 in 10.0 mi SSE 5.8 mph - N/A   Clear
9:55 AM 76.8 °F - 64.6 °F 66% 30.19 in 10.0 mi SSE 6.9 mph - N/A   Clear
10:15 AM 78.1 °F - 65.1 °F 64% 30.19 in 10.0 mi SSE 6.9 mph - N/A   Clear
10:35 AM 78.8 °F - 65.1 °F 63% 30.19 in 10.0 mi SSE 9.2 mph - N/A   Clear
10:55 AM 79.3 °F - 65.3 °F 62% 30.18 in 10.0 mi SSE 9.2 mph - N/A   Scattered Clouds
11:15 AM 79.9 °F - 65.3 °F 61% 30.18 in 10.0 mi SSE 9.2 mph - N/A   Scattered Clouds
11:35 AM 79.9 °F - 65.5 °F 61% 30.18 in 10.0 mi ESE 10.4 mph - N/A   Scattered Clouds
11:55 AM 80.2 °F 82.5 °F 66.6 °F 63% 30.18 in 10.0 mi SSE 10.4 mph - N/A   Scattered Clouds
12:15 PM 81.1 °F 83.4 °F 66.4 °F 61% 30.18 in 10.0 mi SE 6.9 mph - N/A   Scattered Clouds
12:35 PM 82.2 °F 84.6 °F 66.6 °F 59% 30.17 in 10.0 mi SSE 9.2 mph - N/A   Scattered Clouds
12:55 PM 82.9 °F 85.4 °F 66.7 °F 58% 30.16 in 10.0 mi SE 6.9 mph - N/A   Scattered Clouds
1:15 PM 83.1 °F 85.2 °F 66.0 °F 56% 30.16 in 10.0 mi South 10.4 mph - N/A   Scattered Clouds
1:35 PM 83.7 °F 85.8 °F 66.0 °F 55% 30.16 in 10.0 mi South 9.2 mph - N/A   Scattered Clouds
1:55 PM 83.7 °F 85.5 °F 65.3 °F 54% 30.16 in 10.0 mi SE 10.4 mph - N/A   Clear
2:15 PM 84.0 °F 85.8 °F 64.9 °F 53% 30.15 in 10.0 mi ESE 9.2 mph - N/A   Scattered Clouds
2:35 PM 83.8 °F 85.8 °F 65.5 °F 54% 30.13 in 10.0 mi South 9.2 mph - N/A   Clear
2:55 PM 85.1 °F 86.9 °F 64.9 °F 51% 30.13 in 10.0 mi SSE 9.2 mph - N/A   Clear
3:15 PM 84.9 °F 85.9 °F 63.5 °F 48% 30.12 in 10.0 mi SE 9.2 mph - N/A   Clear
3:35 PM 84.2 °F 85.2 °F 63.1 °F 49% 30.11 in 10.0 mi SSE 5.8 mph - N/A   Clear
3:55 PM 84.7 °F 85.6 °F 63.1 °F 48% 30.11 in 10.0 mi SE 8.1 mph - N/A   Clear
4:15 PM 83.5 °F 84.9 °F 64.0 °F 52% 30.10 in 10.0 mi SE 5.8 mph - N/A   Clear
4:35 PM 84.0 °F 85.6 °F 64.8 °F 52% 30.10 in 10.0 mi ESE 8.1 mph - N/A   Scattered Clouds
4:55 PM 84.2 °F 85.8 °F 64.8 °F 52% 30.09 in 10.0 mi SE 5.8 mph - N/A   Scattered Clouds
5:15 PM 83.8 °F 85.3 °F 64.8 °F 52% 30.10 in 10.0 mi ESE 6.9 mph - N/A   Clear
5:35 PM 83.8 °F 85.6 °F 64.9 °F 53% 30.09 in 10.0 mi ESE 5.8 mph - N/A   Scattered Clouds
5:55 PM 82.8 °F 84.5 °F 65.1 °F 55% 30.09 in 10.0 mi SSE 6.9 mph - N/A   Scattered Clouds
6:15 PM 82.2 °F 83.7 °F 64.2 °F 54% 30.10 in 10.0 mi SE 5.8 mph - N/A   Clear
6:35 PM 81.3 °F 82.9 °F 64.4 °F 56% 30.10 in 10.0 mi SE 4.6 mph - N/A   Scattered Clouds
6:55 PM 80.2 °F 82.0 °F 64.6 °F 59% 30.10 in 10.0 mi SE 4.6 mph - N/A   Scattered Clouds
7:15 PM 78.8 °F - 65.1 °F 63% 30.11 in 10.0 mi SW 4.6 mph - N/A Rain Light Rain
7:35 PM 74.1 °F - 68.0 °F 81% 30.10 in 10.0 mi Calm Calm - 0.01 in Rain Light Rain
7:55 PM 72.5 °F - 68.9 °F 88% 30.10 in 10.0 mi Calm Calm - 0.01 in   Clear
8:15 PM 70.5 °F - 69.3 °F 96% 30.10 in 10.0 mi Calm Calm - N/A   Clear
8:35 PM 71.2 °F - 69.8 °F 95% 30.10 in 10.0 mi Calm Calm - N/A   Clear
8:55 PM 72.0 °F - 68.5 °F 89% 30.10 in 10.0 mi ESE 3.5 mph - N/A   Clear
9:15 PM 73.2 °F - 66.0 °F 78% 30.10 in 10.0 mi Calm Calm - N/A   Clear
9:35 PM 73.0 °F - 65.7 °F 78% 30.10 in 10.0 mi Calm Calm - N/A   Clear
9:55 PM 73.2 °F - 64.9 °F 75% 30.10 in 10.0 mi Calm Calm - N/A   Clear
10:15 PM 73.2 °F - 64.6 °F 74% 30.11 in 10.0 mi ESE 3.5 mph - N/A   Clear
10:35 PM 73.0 °F - 64.2 °F 74% 30.11 in 10.0 mi SE 5.8 mph - N/A   Clear
10:55 PM 73.0 °F - 63.9 °F 73% 30.11 in 10.0 mi SSE 3.5 mph - N/A   Clear
11:15 PM 72.7 °F - 63.7 °F 73% 30.10 in 10.0 mi SE 4.6 mph - N/A   Clear
11:35 PM 72.5 °F - 63.5 °F 73% 30.10 in 10.0 mi Calm Calm - N/A   Clear
11:55 PM 72.5 °F - 63.7 °F 74% 30.10 in 10.0 mi SE 3.5 mph - N/A   Clear